[[{"header":{"parameterUnit":"m.s-1","parameterCategory":1,"la1":30.2991,"la2":30.254,"lo1":-89.0895,"lo2":-89.0444,"dy":0.0017,"dx":0.0017,"nx":28,"ny":28,"refTime":"2025-03-17T03:00:00:Z","depth":0,"parameterNumber":2,"parameterNumberName":"U-component_of_WINDS"},"data":[0,0,0,0,0,0,0,0,0,0,0,0,0,0,0,0,0,0,0,0,0,0,0,0,0,0,0,0,0,0,0,0,0,0,0,0,0,0,0,0,0,0,0,0,0,0,0,0,0,0,0,0,0,0,0,0,0,0,-3.3984,-3.3985,0,-3.4062,-3.4062,-3.4063,-3.4043,-3.4042,-3.404,-3.4039,-3.4116,-3.4119,-3.4123,0,0,0,0,0,0,0,0,0,0,0,0,0,-3.3819,-3.3822,-3.3984,-3.3985,-3.3986,-3.4061,-3.4062,-3.4063,-3.4043,-3.4042,-3.404,-3.4038,-3.4115,-3.4119,-3.4123,0,0,0,0,0,0,0,0,0,0,0,0,0,-3.3893,-3.3823,-3.3984,-3.3985,-3.3986,-3.4061,-3.4062,-3.4064,-3.4044,-3.4042,-3.4039,-3.4037,-3.4113,-3.4118,-3.4124,-3.4201,0,0,-3.4139,-3.4142,0,0,0,0,0,0,0,0,-3.3889,-3.3899,-3.3984,-3.3985,-3.3987,-3.404,-3.4032,-3.411,-3.4044,-3.4022,-3.4039,-3.4036,-3.4093,-3.4099,-3.4119,-3.4205,-3.4208,-3.414,-3.4143,-3.4145,-3.4147,0,0,0,0,0,0,0,-3.3884,-3.3896,-3.4015,-3.3986,-3.3987,-3.3982,-3.399,-3.4047,-3.4069,-3.4024,-3.4022,-3.4032,-3.4093,-3.4114,-3.412,-3.4209,-3.414,-3.4144,-3.4148,-3.415,-3.4365,-3.4367,0,0,0,0,0,0,-3.3878,-3.3892,-3.4012,-3.4017,-3.3931,-3.3987,-3.3996,-3.4025,-3.4068,-3.4073,-3.4034,-3.4031,-3.4106,-3.4114,-3.4123,-3.4217,-3.4145,-3.415,-3.4153,-3.4362,-3.4365,-3.4368,0,0,0,0,0,0,-3.3874,-3.3889,-3.4009,-3.3954,-3.3969,-3.3992,-3.4026,-3.4028,-3.4049,-3.4076,-3.408,-3.4051,-3.4104,-3.4116,-3.4182,-3.422,-3.4153,-3.4157,-3.4359,-3.4363,-3.4367,-3.4406,0,0,0,0,0,0,-3.387,-3.3888,-3.3917,-3.3955,-3.3972,-3.4067,-3.4028,-3.4031,-3.4058,-3.4055,-3.4093,-3.4098,-3.4104,-3.4175,-3.4188,-3.4226,-3.4161,-3.4356,-3.4361,-3.4365,-3.4402,-3.4411,-3.4419,0,0,0,0,0,-3.3864,-3.3925,-3.3919,-3.3934,-3.401,-3.407,-3.4079,-3.4086,-3.4061,-3.4091,-3.4109,-3.4096,-3.4214,-3.4182,-3.4196,-3.4236,-3.4353,-3.4359,-3.4365,-3.4398,-3.4409,-3.4419,0,0,0,0,0,0,-3.389,-3.393,-3.3924,-3.3999,-3.4031,-3.4066,-3.4104,-3.4097,-3.4137,-3.4132,-3.4137,-3.4146,-3.4215,-3.4232,-3.4196,-3.4314,-3.428,-3.4289,-3.43,-3.4311,-3.432,-3.4313,-3.4166,0,0,0,0,0,-3.3905,-3.395,-3.3982,-3.4045,-3.4062,-3.4081,-3.4107,-3.4109,-3.4143,-3.4156,-3.4178,-3.4211,-3.4256,-3.4284,-3.4327,-3.4405,-3.4413,-3.444,-3.4448,-3.4455,-3.4462,-3.4506,-3.4518,-3.4387,-3.4387,-3.4387,0,0,-3.3935,-3.3962,-3.399,-3.4051,-3.4077,-3.4124,-3.4092,-3.4143,-3.4178,-3.4164,-3.4228,-3.4246,-3.4283,-3.4356,-3.4389,-3.4373,-3.4501,-3.4463,-3.4468,-3.4471,-3.4513,-3.4525,-3.4536,-3.4391,-3.439,-3.439,0,0,-3.4013,-3.4039,-3.4095,-3.4121,-3.4161,-3.4173,-3.4187,-3.4224,-3.4235,-3.43,-3.4291,-3.4333,-3.4409,-3.4436,-3.446,-3.4552,-3.4542,-3.4566,-3.461,-3.4652,-3.4662,-3.4672,-3.4704,-3.4716,-3.4573,-3.4573,-3.4573,0,-3.4045,-3.4116,-3.4124,-3.4176,-3.4203,-3.4194,-3.4251,-3.4276,-3.4327,-3.4346,-3.4328,-3.4424,-3.4448,-3.4528,-3.4551,-3.457,-3.4586,-3.456,-3.4661,-3.467,-3.4678,-3.471,-3.4722,-3.4576,-3.4575,-3.4575,-3.4575,0,-3.4154,-3.4204,-3.4244,-3.4295,-3.4327,-3.4381,-3.4396,-3.4428,-3.4428,-3.4443,-3.451,-3.4539,-3.4588,-3.4607,-3.4607,-3.4687,-3.4676,-3.4659,-3.4624,-3.4693,-3.4723,-3.4735,-3.458,-3.4579,-3.4578,-3.4577,0,0,-3.4249,-3.4305,-3.4319,-3.4343,-3.4387,-3.4425,-3.448,-3.4528,-3.4555,-3.4591,-3.4637,-3.4703,-3.4688,-3.4715,-3.4719,-3.4756,-3.4827,-3.4735,-3.4736,-3.4751,-3.4918,-3.4929,-3.4943,-3.4822,-3.4824,-3.4826,-3.4914,0,-3.4331,-3.4427,-3.4436,-3.4522,-3.4568,-3.4562,-3.4609,-3.4641,-3.4657,-3.4698,-3.4715,-3.4762,-3.4739,-3.4755,-3.4792,-3.4811,-3.4861,-3.4805,-3.4864,-3.4866,-3.4853,-3.4958,-3.497,-3.5052,-3.4926,-3.4928,-3.4929,0,-3.4439,-3.448,-3.4571,-3.461,-3.463,-3.4672,-3.4718,-3.4758,-3.4795,-3.4803,-3.4835,-3.4834,-3.489,-3.4855,-3.4933,-3.4895,-3.492,-3.4933,-3.4936,-3.4941,-3.4901,-3.4965,-3.5078,-3.509,-3.4947,-3.4946,-3.4945,0,-3.4499,-3.4577,-3.4641,-3.4661,-3.4709,-3.4739,-3.476,-3.4795,-3.4824,-3.4864,-3.4883,-3.4929,-3.4954,-3.499,-3.5002,-3.4976,-3.508,-3.5045,-3.5088,-3.5088,-3.5109,-3.5107,-3.5227,-3.5127,-3.5127,-3.5126,-3.5126,0,-3.4589,-3.4645,-3.4669,-3.4708,-3.4771,-3.4782,-3.4843,-3.4863,-3.4894,-3.4937,-3.4935,-3.4975,-3.4989,-3.5032,-3.5042,-3.5105,-3.5117,-3.5125,-3.5127,-3.5125,-3.5124,-3.514,-3.5134,-3.513,-3.5129,-3.5128,-3.5128,0,-3.4665,-3.4684,-3.4753,-3.4794,-3.4805,-3.4849,-3.4883,-3.4922,-3.4938,-3.4993,-3.5006,-3.5031,-3.5082,-3.5098,-3.5159,-3.5166,-3.5239,-3.5236,-3.5227,-3.5227,-3.5269,-3.5264,-3.5402,-3.5421,-3.5309,-3.531,-3.5311,0,-3.4721,-3.4764,-3.4809,-3.4838,-3.4861,-3.4908,-3.4938,-3.4951,-3.4983,-3.5029,-3.5062,-3.5113,-3.5154,-3.5236,-3.5259,-3.5306,-3.5304,-3.5349,-3.5311,-3.5308,-3.5304,-3.5301,-3.5305,-3.5356,-3.5357,-3.5358,-3.5359,0,-3.4818,-3.4825,-3.4869,-3.4917,-3.4953,-3.4992,-3.5028,-3.5052,-3.5071,-3.5106,-3.5159,-3.5191,-3.5255,-3.5305,-3.5353,-3.5375,-3.537,-3.5371,-3.5383,-3.5381,-3.5374,-3.5378,-3.5246,-3.5367,-3.5366,-3.5366,-3.5365,-3.5365,-3.4885,-3.4923,-3.4961,-3.5011,-3.504,-3.5075,-3.5113,-3.5135,-3.5179,-3.5232,-3.5238,-3.5295,-3.5332,-3.5397,-3.5421,-3.5466,-3.5453,-3.5471,-3.5475,-3.5479,-3.5482,-3.5368,-3.5475,-3.5475,-3.5474,-3.5474,-3.5474,0,-3.4981,-3.5006,-3.5052,-3.5104,-3.5143,-3.5137,-3.5178,-3.521,-3.5261,-3.5297,-3.5338,-3.5399,-3.5448,-3.5477,-3.5526,-3.5557,-3.5556,-3.5569,-3.5566,-3.5571,-3.5491,-3.5475,-3.5569,-3.5569,-3.5569,-3.5569,-3.5569,-3.5569,-3.5035,-3.51,-3.5113,-3.5192,-3.5217,-3.5273,-3.5297,-3.5329,-3.5358,-3.5426,-3.5468,-3.5487,-3.552,-3.5572,-3.5617,-3.5624,-3.5642,-3.5657,-3.5663,-3.5587,-3.5577,-3.5568,-3.5553,-3.5661,-3.5661,-3.5739,-3.574,-3.5741]},{"header":{"parameterUnit":"m.s-1","parameterCategory":1,"la1":30.2991,"la2":30.254,"lo1":-89.0895,"lo2":-89.0444,"dy":0.0017,"dx":0.0017,"nx":28,"ny":28,"refTime":"2025-03-17T03:00:00:Z","depth":0,"parameterNumber":3,"parameterNumberName":"V-component_of_WINDS"},"data":[0,0,0,0,0,0,0,0,0,0,0,0,0,0,0,0,0,0,0,0,0,0,0,0,0,0,0,0,0,0,0,0,0,0,0,0,0,0,0,0,0,0,0,0,0,0,0,0,0,0,0,0,0,0,0,0,0,0,2.3513,2.3512,0,2.3431,2.343,2.3429,2.3367,2.3367,2.3366,2.3365,2.3277,2.3275,2.3273,0,0,0,0,0,0,0,0,0,0,0,0,0,2.3613,2.3611,2.3513,2.3512,2.3511,2.3431,2.343,2.3429,2.3367,2.3367,2.3366,2.3365,2.3277,2.3275,2.3273,0,0,0,0,0,0,0,0,0,0,0,0,0,2.3554,2.3611,2.3513,2.3471,2.3466,2.3431,2.343,2.3428,2.3367,2.3366,2.3366,2.3365,2.3278,2.3275,2.3273,2.3272,0,0,2.3264,2.3263,0,0,0,0,0,0,0,0,2.3557,2.355,2.3478,2.3474,2.3468,2.3409,2.3432,2.3376,2.3368,2.3405,2.3365,2.3365,2.3321,2.3315,2.3301,2.3268,2.3264,2.3264,2.3262,2.3261,2.326,0,0,0,0,0,0,0,2.3561,2.3553,2.348,2.3477,2.3471,2.3455,2.3445,2.3421,2.3368,2.3401,2.3397,2.3388,2.3318,2.3304,2.3298,2.3263,2.3264,2.3262,2.326,2.3259,2.3226,2.3227,0,0,0,0,0,0,2.3573,2.3557,2.3483,2.3478,2.3512,2.3453,2.3443,2.3428,2.3368,2.3359,2.3389,2.3386,2.3309,2.3302,2.3295,2.3291,2.3261,2.3259,2.3257,2.3225,2.3226,2.3227,0,0,0,0,0,0,2.3575,2.3567,2.3486,2.3516,2.3505,2.3453,2.3437,2.3427,2.3413,2.3359,2.3349,2.3384,2.3308,2.3299,2.3279,2.3287,2.3257,2.3255,2.3224,2.3225,2.3226,2.3282,0,0,0,0,0,0,2.3578,2.3568,2.3568,2.3517,2.3503,2.3473,2.3437,2.3426,2.3409,2.3404,2.3352,2.3342,2.3307,2.3283,2.3276,2.3282,2.3253,2.3223,2.3225,2.3226,2.3279,2.3285,2.329,0,0,0,0,0,2.3582,2.3586,2.3568,2.356,2.3503,2.3473,2.3465,2.3425,2.341,2.3409,2.3374,2.3344,2.3287,2.3282,2.3273,2.3279,2.3222,2.3224,2.3226,2.3277,2.3284,2.3289,0,0,0,0,0,0,2.3637,2.3578,2.3558,2.3546,2.3515,2.3463,2.346,2.3434,2.3406,2.3402,2.3352,2.3341,2.3326,2.33,2.3295,2.3275,2.3251,2.3251,2.3292,2.3299,2.3304,2.331,2.325,0,0,0,0,0,2.3648,2.363,2.3579,2.3573,2.3559,2.3513,2.3498,2.347,2.3436,2.3422,2.3386,2.3353,2.3328,2.3312,2.3285,2.3275,2.3263,2.3275,2.328,2.3285,2.3285,2.3278,2.3283,2.3233,2.3233,2.3233,0,0,2.3669,2.3635,2.3627,2.3583,2.3556,2.3538,2.3502,2.3484,2.347,2.3419,2.3398,2.3371,2.333,2.3316,2.3307,2.3293,2.3297,2.3287,2.3291,2.3289,2.3281,2.3285,2.329,2.3234,2.3234,2.3233,0,0,2.37,2.3673,2.3665,2.3639,2.36,2.3569,2.3567,2.3519,2.35,2.3479,2.3441,2.3422,2.338,2.3353,2.3333,2.3356,2.3327,2.3348,2.3376,2.3369,2.3373,2.3377,2.3384,2.3388,2.3349,2.3349,2.3349,0,2.3731,2.3704,2.3663,2.3648,2.363,2.3586,2.3577,2.3553,2.3507,2.3495,2.3481,2.3427,2.3397,2.3375,2.3381,2.3367,2.3363,2.3353,2.3376,2.3379,2.3382,2.3388,2.3391,2.3352,2.3352,2.3351,2.3351,0,2.3744,2.3726,2.3724,2.3683,2.3664,2.3652,2.3609,2.3595,2.357,2.354,2.3519,2.3482,2.3447,2.344,2.3414,2.3415,2.3408,2.3386,2.336,2.339,2.3395,2.3398,2.3356,2.3355,2.3354,2.3354,0,0,2.3805,2.3743,2.3743,2.3724,2.3678,2.3662,2.3649,2.3617,2.3606,2.3575,2.3562,2.3528,2.3508,2.3486,2.3456,2.3451,2.3471,2.3429,2.3428,2.3438,2.347,2.3487,2.349,2.3452,2.3453,2.3453,2.3473,0,2.3828,2.3802,2.3766,2.3752,2.3734,2.3693,2.3681,2.3651,2.3623,2.3603,2.3572,2.3549,2.3524,2.3511,2.3504,2.347,2.3477,2.3468,2.3438,2.3438,2.3449,2.3493,2.351,2.3531,2.3475,2.3476,2.3476,0,2.3851,2.3825,2.381,2.3766,2.3758,2.3747,2.3716,2.3698,2.3663,2.3643,2.362,2.3589,2.3571,2.355,2.3524,2.3519,2.3505,2.3487,2.3487,2.3481,2.3458,2.3489,2.3537,2.354,2.3479,2.3479,2.3478,0,2.3897,2.3858,2.3844,2.3829,2.3778,2.3772,2.375,2.3715,2.3698,2.367,2.3659,2.3629,2.3612,2.3589,2.355,2.3538,2.3529,2.3504,2.3512,2.3513,2.351,2.3511,2.3557,2.3503,2.3503,2.3503,2.3503,0,2.3926,2.3918,2.3864,2.3855,2.3845,2.3804,2.3795,2.3769,2.3738,2.3723,2.3684,2.3671,2.3621,2.3601,2.357,2.3554,2.3547,2.353,2.3522,2.3533,2.3535,2.3522,2.3519,2.3503,2.3503,2.3503,2.3503,0,2.3975,2.3939,2.3921,2.3875,2.3863,2.3858,2.3817,2.3807,2.3778,2.376,2.3753,2.3707,2.3682,2.3642,2.3604,2.3583,2.3572,2.3559,2.3585,2.358,2.3589,2.3589,2.3628,2.363,2.3576,2.3576,2.3577,0,2.3995,2.3988,2.3943,2.3931,2.3911,2.3892,2.3875,2.3835,2.3819,2.378,2.3774,2.3746,2.3722,2.3683,2.3646,2.3617,2.3603,2.3618,2.3598,2.361,2.3602,2.3603,2.3602,2.3623,2.3623,2.3624,2.3625,0,2.4035,2.4018,2.3997,2.397,2.3952,2.3928,2.3902,2.3894,2.3848,2.3832,2.3807,2.3788,2.3751,2.3724,2.369,2.3666,2.3637,2.3632,2.3632,2.3643,2.3658,2.365,2.3597,2.3631,2.363,2.363,2.3629,2.3629,2.407,2.4063,2.403,2.4007,2.3984,2.3961,2.395,2.3921,2.3899,2.3867,2.3844,2.3821,2.3786,2.3738,2.3716,2.3697,2.3684,2.3684,2.3684,2.3684,2.3689,2.3662,2.369,2.369,2.369,2.369,2.3689,0,2.4108,2.4085,2.4066,2.4032,2.4014,2.3991,2.3962,2.3948,2.3929,2.39,2.3877,2.3849,2.3823,2.3784,2.3755,2.3747,2.3733,2.374,2.374,2.3735,2.3702,2.3705,2.3752,2.3752,2.3752,2.3752,2.3752,2.3752,2.4126,2.4112,2.4091,2.4065,2.4042,2.402,2.4005,2.3984,2.3961,2.3931,2.391,2.3886,2.3853,2.3822,2.3796,2.3786,2.3776,2.3788,2.3773,2.3743,2.3737,2.3732,2.3734,2.3787,2.3787,2.3808,2.3808,2.3808]}]]